User: anonymous   Login
Location: Agadir-Ikarkaouin
(31.1503°N, 9.0246°W)
Time: 20:02:35
(UTC+00:00)
Language:

Cosmos 1025 Rocket - Orbit

View from above orbital plane
View from above orbital plane
View from above satellite
View from above satellite

Ground track
Ground track

The orbit data is extracted from the following two-line orbital elements,

1 10974U 78067B   21169.55746503  .00000085  00000-0  66110-5 0  9995
2 10974  82.4825 224.0487 0017586 171.8661 188.2845 14.87401584303808
Epoch (UTC): 18 June 2021 13:22:44
Eccentricity: 0.0017586
inclination: 82.4825°
perigee height: 594 km
apogee height: 618 km
right ascension of ascending node: 224.0487°
argument of perigee: 171.8661°
revolutions per day: 14.87401584
mean anomaly at epoch: 188.2845°
orbit number at epoch: 30380

The dashed part of the orbit path shows where the satellite is in the earth's shadow,  

DLR